KA2QBS Weather Reports


Display with metric or nautical units.
time (UTC)temp
F
wind
direction
speed
MPH
gust
MPH
rain 1hr
in
rain 24hr
in
rain mn
in
humidity
%
barometer
mb
20260906133008 64 274 0.0 5.0 0.00 0.01 0.00 81 1017.4
20260906131505 63 274 0.0 1.0 0.00 0.01 0.00 84 1017.5
20260906130001 63 274 0.0 3.0 0.00 0.01 0.00 86 1017.5
20260906124559 62 274 0.0 1.0 0.00 0.01 0.00 88 1017.4
20260906123055 61 274 0.0 0.0 0.00 0.01 0.00 90 1017.3
20260906121554 60 274 0.0 2.0 0.00 0.01 0.00 93 1017.4
20260906120051 59 274 0.0 1.0 0.00 0.01 0.00 94 1017.3
20260906114552 59 274 0.0 0.0 0.00 0.01 0.00 96 1017.1
20260906113048 58 274 0.0 0.0 0.00 0.01 0.00 96 1017.1
20260906111606 58 274 0.0 0.0 0.00 0.01 0.00 96 1016.8
20260906110043 58 274 0.0 0.0 0.00 0.01 0.00 97 1016.4
20260906104543 58 274 0.0 1.0 0.00 0.01 0.00 97 1016.4
20260906101543 58 274 0.0 0.0 0.00 0.01 0.00 97 1016.2
20260906100042 58 274 0.0 0.0 0.00 0.01 0.00 97 1016.0
20260906094536 58 274 0.0 0.0 0.00 0.01 0.00 97 1015.7
20260906093038 58 274 0.0 0.0 0.00 0.01 0.00 97 1015.7
20260906091534 58 274 0.0 0.0 0.00 0.01 0.00 97 1015.6
20260906090032 58 274 0.0 0.0 0.00 0.01 0.00 97 1015.2
20260906084532 58 274 0.0 0.0 0.00 0.01 0.00 97 1015.2
20260906083032 58 274 0.0 1.0 0.00 0.01 0.00 97 1015.1
20260906081530 58 274 0.0 0.0 0.00 0.01 0.00 97 1015.1
20260906080028 58 274 0.0 0.0 0.00 0.01 0.00 97 1015.1
20260906074528 58 274 0.0 0.0 0.00 0.01 0.00 97 1015.0
20260906073031 59 274 0.0 2.0 0.00 0.01 0.00 97 1014.9
20260906071527 59 274 0.0 0.0 0.00 0.01 0.00 97 1014.8
20260906070026 58 274 0.0 0.0 0.00 0.01 0.00 97 1014.7
20260906064525 58 274 0.0 0.0 0.00 0.01 0.00 97 1014.8
20260906063025 59 274 0.0 0.0 0.00 0.01 0.00 96 1014.7
20260906061524 59 274 0.0 0.0 0.00 0.01 0.00 96 1014.8
20260906060027 59 274 0.0 0.0 0.00 0.01 0.00 96 1014.8
20260906054537 59 274 0.0 0.0 0.00 0.01 0.00 96 1014.8
20260906053022 59 274 0.0 0.0 0.00 0.01 0.00 96 1014.9
20260906051522 59 274 0.0 0.0 0.00 0.01 0.00 96 1014.9
20260906050021 60 274 0.0 0.0 0.00 0.01 0.00 96 1014.8
20260906044520 59 274 0.0 0.0 0.00 0.01 0.00 96 1014.8
20260906043020 59 274 0.0 0.0 0.00 0.01 0.00 96 1015.0
20260906041518 59 274 0.0 0.0 0.00 0.01 0.00 96 1014.9
20260906040024 59 274 0.0 0.0 0.00 0.01 0.00 96 1014.9
20260906034515 59 274 0.0 0.0 0.00 0.01 0.01 94 1014.7
20260906033033 60 274 0.0 0.0 0.00 0.01 0.01 95 1014.7
20260906031512 60 274 0.0 0.0 0.00 0.01 0.01 94 1014.6
20260906030010 61 274 0.0 0.0 0.00 0.01 0.01 93 1014.4
20260906024510 62 274 0.0 0.0 0.00 0.01 0.01 93 1014.2
20260906023009 62 274 0.0 0.0 0.00 0.01 0.01 92 1014.2
20260906021510 63 274 0.0 0.0 0.00 0.01 0.01 92 1014.3
20260906020008 63 274 0.0 0.0 0.00 0.01 0.01 91 1014.3
20260906014506 64 274 0.0 0.0 0.00 0.01 0.01 89 1014.1
20260906013006 64 274 0.0 0.0 0.00 0.01 0.01 88 1014.0
20260906011511 64 274 0.0 0.0 0.00 0.01 0.01 88 1014.1
20260906010004 64 274 0.0 0.0 0.00 0.01 0.01 88 1014.0
20260906004503 64 274 0.0 0.0 0.00 0.01 0.01 89 1013.9
20260906003003 64 274 0.0 0.0 0.00 0.01 0.01 90 1013.7
20260906001502 65 274 0.0 0.0 0.00 0.01 0.01 91 1013.9
20260906000001 65 274 0.0 0.0 0.00 0.01 0.01 94 1013.8
20260905234601 65 274 0.0 0.0 0.00 0.01 0.01 93 1013.6
20260905233103 66 274 0.0 0.0 0.00 0.01 0.01 92 1013.4
20260905231600 67 274 0.0 0.0 0.00 0.01 0.01 92 1013.4
20260905230106 67 274 0.0 0.0 0.00 0.01 0.01 92 1013.4
20260905224616 67 274 0.0 0.0 0.00 0.01 0.01 92 1013.5
20260905223111 68 274 0.0 0.0 0.00 0.01 0.01 89 1013.4
20260905221603 67 274 0.0 0.0 0.00 0.01 0.01 88 1013.1
20260905220057 68 274 0.0 0.0 0.00 0.01 0.01 88 1012.8
20260905214601 68 274 0.0 0.0 0.00 0.01 0.01 87 1012.8
20260905213102 69 274 0.0 0.0 0.00 0.01 0.01 86 1012.8
20260905211557 69 274 0.0 0.0 0.00 0.01 0.01 89 1012.7
20260905210101 70 274 0.0 0.0 0.00 0.01 0.01 87 1012.6
20260905204554 70 274 0.0 1.0 0.00 0.01 0.01 88 1012.7
20260905203055 69 274 0.0 0.0 0.01 0.01 0.01 89 1012.6
20260905201552 68 274 0.0 0.0 0.01 0.01 0.01 90 1012.7
20260905200052 67 274 0.0 0.0 0.01 0.01 0.01 88 1012.5
20260905194552 69 274 0.0 5.0 0.01 0.01 0.01 82 1012.6
20260905193051 72 275 0.0 4.0 0.00 0.00 0.00 76 1012.3
20260905191554 70 250 0.0 3.0 0.00 0.00 0.00 82 1012.3
20260905190050 71 248 1.0 8.0 0.00 0.00 0.00 77 1012.5
20260905184557 73 272 0.0 8.0 0.00 0.00 0.00 71 1012.4
20260905183049 75 271 2.0 6.0 0.00 0.00 0.00 63 1012.3
20260905181547 72 277 0.0 0.0 0.00 0.00 0.00 76 1012.3
20260905180058 71 277 0.0 0.0 0.00 0.00 0.00 77 1012.4
20260905174546 71 277 0.0 2.0 0.00 0.00 0.00 76 1012.4
20260905173103 73 278 2.0 8.0 0.00 0.00 0.00 72 1012.3
20260905171546 72 269 0.0 1.0 0.00 0.00 0.00 73 1012.4
20260905170050 73 269 0.0 2.0 0.00 0.00 0.00 70 1012.4
20260905164542 71 269 0.0 3.0 0.00 0.00 0.00 75 1012.4
20260905163041 71 269 0.0 8.0 0.00 0.00 0.00 76 1012.5
20260905161555 70 264 0.0 4.0 0.00 0.00 0.00 76 1012.6
20260905160037 70 290 0.0 7.0 0.00 0.00 0.00 77 1012.8
20260905154534 69 279 0.0 7.0 0.00 0.00 0.00 78 1012.9
20260905153033 68 284 4.0 9.0 0.00 0.00 0.00 79 1013.1
20260905151533 69 271 0.0 8.0 0.00 0.00 0.00 80 1013.1
20260905150030 68 278 1.0 9.0 0.00 0.00 0.00 80 1013.2
20260905144528 68 262 5.0 10.0 0.00 0.00 0.00 82 1013.3
20260905143027 68 271 2.0 6.0 0.00 0.00 0.00 83 1013.2
20260905141523 66 275 0.0 7.0 0.00 0.00 0.00 84 1013.4
20260905140020 65 284 0.0 7.0 0.00 0.00 0.00 87 1013.3
20260905134518 64 277 0.0 4.0 0.00 0.00 0.00 89 1013.5